COSMOS 2459 (731)

Last updated on June 24, 2019, 3:41 a.m. UTC

1 36400U 10007A   19173.43577956 -.00000066  00000-0  10000-3 0  9995
2 36400  65.7597  39.9788 0026941 353.9121 129.0014  2.13102201 72440
UTC
Height (km)
Latitude
Longitude
Inclination
Orbital Period
UTC large
Height (km)
Speed (km/s)
/
Latitude / Longitude
Inclination (degrees)
Orbital Period (minutes)
Azimuth
Elevation
Range (km)
Doppler Factor
iOS Compass Heading
iOS Angle

Next 30 passes for location: Hong Kong

Rise time Rise Azimuth (degrees) Set time Set Azimuth (degrees) Duration Max altitude (degrees)

No matching passes for this satellites